CSN3485 ZGGG-ZUCK

Flight info

Callsign CSN3485
Flight time 1h 43m
Altitude 32100
Route AGVIL W24 OSNOV G586 QP B330 ELKAL W179 SUMUN W3 ASIPO W678 SEGDA
Aircraft A359/H-SDE2E3GHIJ3J4J5LM1ORWXY/LB1D1

Departure

Time 2026-04-28 05:29
Airport Guangzhou Baiyun International Airport (ZGGG)

Arrival

Time 2026-04-28 07:13
Airport Chongqing Jiangbei International Airport (ZUCK)
Time Latitude Longitude Altitude Speed Heading
2026-04-28 04:54 23.39892 113.30422 61 ft 0 kts 277°
2026-04-28 05:17 23.39889 113.30448 65 ft 4 kts 276°
2026-04-28 05:17 23.39886 113.30477 48 ft 4 kts 274°
2026-04-28 05:18 23.39885 113.30507 53 ft 4 kts 273°
2026-04-28 05:18 23.39883 113.30536 55 ft 4 kts 274°
2026-04-28 05:18 23.39880 113.30565 56 ft 4 kts 284°
2026-04-28 05:18 23.39871 113.30587 52 ft 2 kts 323°
2026-04-28 05:19 23.39870 113.30588 52 ft 0 kts 324°
2026-04-28 05:21 23.39871 113.30587 52 ft 1 kts 324°
2026-04-28 05:22 23.39886 113.30577 54 ft 8 kts 327°
2026-04-28 05:22 23.39940 113.30563 56 ft 7 kts 11°
2026-04-28 05:22 23.39969 113.30591 54 ft 5 kts 58°
2026-04-28 05:22 23.39970 113.30644 53 ft 8 kts 105°
2026-04-28 05:23 23.39954 113.30714 60 ft 10 kts 98°
2026-04-28 05:23 23.39971 113.30773 52 ft 4 kts 37°
2026-04-28 05:23 23.40002 113.30818 53 ft 10 kts 67°
2026-04-28 05:23 23.39999 113.30895 53 ft 14 kts 101°
2026-04-28 05:24 23.40006 113.30975 52 ft 6 kts 50°
2026-04-28 05:24 23.40046 113.31001 57 ft 10 kts 22°
2026-04-28 05:24 23.40159 113.31036 55 ft 19 kts 14°
2026-04-28 05:24 23.40292 113.31071 58 ft 21 kts 13°
2026-04-28 05:25 23.40439 113.31109 54 ft 23 kts 13°
2026-04-28 05:25 23.40600 113.31154 56 ft 25 kts 15°
2026-04-28 05:25 23.40771 113.31202 54 ft 27 kts 14°
2026-04-28 05:25 23.40864 113.31228 56 ft 7 kts 16°
2026-04-28 05:26 23.40875 113.31231 54 ft 3 kts 15°
2026-04-28 05:26 23.40913 113.31274 54 ft 4 kts 89°
2026-04-28 05:26 23.40907 113.31311 54 ft 7 kts 101°
2026-04-28 05:26 23.40894 113.31373 56 ft 10 kts 108°
2026-04-28 05:27 23.40859 113.31410 51 ft 6 kts 164°
2026-04-28 05:27 23.40820 113.31408 52 ft 7 kts 185°
2026-04-28 05:27 23.40779 113.31400 55 ft 0 kts 193°
2026-04-28 05:28 23.40749 113.31392 52 ft 26 kts 193°
2026-04-28 05:29 23.40295 113.31270 51 ft 105 kts 194°
2026-04-28 05:29 23.39375 113.31024 54 ft 168 kts 193°
2026-04-28 05:29 23.38139 113.30684 468 ft 190 kts 192°
2026-04-28 05:29 23.36898 113.30365 1347 ft 182 kts 191°
2026-04-28 05:30 23.35584 113.30027 1927 ft 203 kts 192°
2026-04-28 05:30 23.34164 113.29640 2501 ft 221 kts 192°
2026-04-28 05:30 23.32659 113.29226 3359 ft 224 kts 193°
2026-04-28 05:30 23.31139 113.28809 4234 ft 226 kts 193°
2026-04-28 05:31 23.29588 113.28500 5123 ft 228 kts 185°
2026-04-28 05:31 23.27984 113.28431 5932 ft 233 kts 182°
2026-04-28 05:31 23.26344 113.28420 6782 ft 235 kts 182°
2026-04-28 05:31 23.24698 113.28413 7694 ft 239 kts 182°
2026-04-28 05:32 23.23023 113.28400 8565 ft 244 kts 183°
2026-04-28 05:32 23.21303 113.28385 9503 ft 249 kts 184°
2026-04-28 05:32 23.19551 113.28360 10318 ft 255 kts 185°
2026-04-28 05:32 23.17789 113.28108 11142 ft 257 kts 194°
2026-04-28 05:33 23.16034 113.27696 12007 ft 259 kts 196°
2026-04-28 05:33 23.14278 113.27208 12884 ft 261 kts 201°
2026-04-28 05:33 23.12701 113.26257 13741 ft 261 kts 223°
2026-04-28 05:33 23.11611 113.24690 14504 ft 264 kts 245°
2026-04-28 05:34 23.11222 113.22734 15250 ft 271 kts 268°
2026-04-28 05:34 23.11519 113.20694 16025 ft 276 kts 279°
2026-04-28 05:34 23.11945 113.18642 16764 ft 280 kts 279°
2026-04-28 05:34 23.12369 113.16558 17521 ft 284 kts 279°
2026-04-28 05:35 23.12780 113.14452 18286 ft 287 kts 278°
2026-04-28 05:35 23.13293 113.12334 18924 ft 294 kts 287°
2026-04-28 05:35 23.14298 113.10369 19561 ft 304 kts 304°
2026-04-28 05:35 23.15900 113.08814 20140 ft 318 kts 323°
2026-04-28 05:36 23.18017 113.07900 20433 ft 339 kts 346°
2026-04-28 05:36 23.20396 113.07857 20665 ft 353 kts
2026-04-28 05:36 23.22883 113.07989 20887 ft 362 kts 358°
2026-04-28 05:36 23.25426 113.08021 21078 ft 370 kts 357°
2026-04-28 05:37 23.28051 113.08025 21278 ft 379 kts 356°
2026-04-28 05:37 23.30713 113.08020 21470 ft 387 kts 356°
2026-04-28 05:37 23.33437 113.08011 21653 ft 395 kts 356°
2026-04-28 05:37 23.36214 113.08004 21821 ft 402 kts 357°
2026-04-28 05:38 23.39032 113.08001 21991 ft 409 kts 357°
2026-04-28 05:38 23.41897 113.07993 22163 ft 416 kts 357°
2026-04-28 05:38 23.44830 113.07983 22386 ft 427 kts 357°
2026-04-28 05:38 23.47849 113.07973 22696 ft 439 kts 357°
2026-04-28 05:39 23.50925 113.07966 23114 ft 445 kts 357°
2026-04-28 05:39 23.54039 113.07956 23596 ft 449 kts 357°
2026-04-28 05:39 23.57174 113.07928 24038 ft 453 kts 357°
2026-04-28 05:39 23.60339 113.07899 24499 ft 456 kts 357°
2026-04-28 05:40 23.63520 113.07872 24994 ft 458 kts 357°
2026-04-28 05:40 23.66673 113.07825 25505 ft 461 kts 355°
2026-04-28 05:40 23.69853 113.07433 26023 ft 460 kts 346°
2026-04-28 05:40 23.72910 113.06438 26547 ft 459 kts 335°
2026-04-28 05:41 23.75849 113.05059 27062 ft 460 kts 333°
2026-04-28 05:41 23.78771 113.03610 27605 ft 463 kts 333°
2026-04-28 05:41 23.81715 113.02147 28143 ft 466 kts 333°
2026-04-28 05:41 23.84675 113.00681 28656 ft 469 kts 333°
2026-04-28 05:42 23.87586 112.99241 29082 ft 474 kts 333°
2026-04-28 05:42 23.90603 112.97751 29549 ft 477 kts 333°
2026-04-28 05:42 23.93636 112.96253 30018 ft 480 kts 333°
2026-04-28 05:42 23.96690 112.94744 30439 ft 483 kts 333°
2026-04-28 05:43 23.99757 112.93228 30867 ft 484 kts 333°
2026-04-28 05:43 24.02826 112.91712 31295 ft 486 kts 333°
2026-04-28 05:43 24.05917 112.90183 31695 ft 487 kts 333°
2026-04-28 05:43 24.09018 112.88648 31949 ft 490 kts 333°
2026-04-28 05:44 24.15228 112.85649 31990 ft 489 kts 336°
2026-04-28 05:44 24.21693 112.83317 31991 ft 490 kts 340°
2026-04-28 05:45 24.28230 112.81179 31992 ft 491 kts 341°
2026-04-28 05:45 24.34663 112.79086 31993 ft 467 kts 340°
2026-04-28 05:46 24.37709 112.78058 31994 ft 449 kts 338°
2026-04-28 05:46 24.40497 112.76786 31992 ft 430 kts 330°
2026-04-28 05:46 24.43034 112.75157 31994 ft 418 kts 322°
2026-04-28 05:46 24.45293 112.73182 31997 ft 414 kts 314°
2026-04-28 05:47 24.48864 112.68299 31990 ft 409 kts 297°
2026-04-28 05:47 24.50952 112.62552 31990 ft 406 kts 282°
2026-04-28 05:48 24.51446 112.56400 31984 ft 404 kts 266°
2026-04-28 05:48 24.51479 112.50231 31986 ft 405 kts 273°
2026-04-28 05:49 24.51957 112.44061 31979 ft 405 kts 274°
2026-04-28 05:49 24.52533 112.37894 31979 ft 406 kts 275°
2026-04-28 05:50 24.53130 112.31782 31974 ft 393 kts 275°
2026-04-28 05:50 24.53697 112.25939 31978 ft 381 kts 275°
2026-04-28 05:51 24.54245 112.20159 31975 ft 383 kts 275°
2026-04-28 05:51 24.54523 112.17204 31982 ft 395 kts 275°
2026-04-28 05:51 24.54812 112.14147 31982 ft 409 kts 275°
2026-04-28 05:52 24.55110 112.10991 31977 ft 422 kts 275°
2026-04-28 05:52 24.55417 112.07737 31980 ft 435 kts 275°
2026-04-28 05:52 24.55732 112.04387 31973 ft 447 kts 275°
2026-04-28 05:52 24.56055 112.00939 31974 ft 459 kts 275°
2026-04-28 05:53 24.56385 111.97412 31975 ft 470 kts 275°
2026-04-28 05:53 24.56721 111.93821 31973 ft 472 kts 275°
2026-04-28 05:53 24.57390 111.86658 31959 ft 471 kts 275°
2026-04-28 05:54 24.58049 111.79549 31955 ft 471 kts 275°
2026-04-28 05:54 24.58709 111.72378 31955 ft 472 kts 275°
2026-04-28 05:55 24.59368 111.65187 31962 ft 473 kts 274°
2026-04-28 05:55 24.60018 111.58045 31952 ft 473 kts 274°
2026-04-28 05:56 24.60674 111.50805 31957 ft 473 kts 274°
2026-04-28 05:56 24.61324 111.43608 31949 ft 473 kts 274°
2026-04-28 05:57 24.61968 111.36421 31953 ft 473 kts 274°
2026-04-28 05:57 24.62609 111.29219 31953 ft 473 kts 274°
2026-04-28 05:58 24.63241 111.22019 31962 ft 472 kts 274°
2026-04-28 05:58 24.63853 111.14835 31950 ft 473 kts 274°
2026-04-28 05:59 24.64470 111.07626 31941 ft 474 kts 274°
2026-04-28 05:59 24.65084 111.00403 31939 ft 474 kts 274°
2026-04-28 06:00 24.65694 110.93237 31947 ft 475 kts 274°
2026-04-28 06:00 24.66316 110.86010 31934 ft 475 kts 275°
2026-04-28 06:01 24.67984 110.78997 31941 ft 478 kts 291°
2026-04-28 06:01 24.71630 110.72866 31933 ft 483 kts 311°
2026-04-28 06:02 24.76391 110.67640 31931 ft 485 kts 314°
2026-04-28 06:02 24.81304 110.62547 31932 ft 485 kts 314°
2026-04-28 06:03 24.86181 110.57473 31928 ft 485 kts 314°
2026-04-28 06:03 24.91077 110.52325 31927 ft 484 kts 314°
2026-04-28 06:04 24.95941 110.47184 31930 ft 485 kts 314°
2026-04-28 06:04 25.00776 110.42065 31926 ft 484 kts 314°
2026-04-28 06:05 25.05664 110.36905 31921 ft 484 kts 314°
2026-04-28 06:05 25.10526 110.31765 31923 ft 484 kts 314°
2026-04-28 06:06 25.15389 110.26620 31926 ft 485 kts 314°
2026-04-28 06:06 25.19441 110.22328 31925 ft 486 kts 314°
2026-04-28 06:07 25.24346 110.17159 31927 ft 487 kts 314°
2026-04-28 06:07 25.29264 110.12020 31925 ft 486 kts 314°
2026-04-28 06:08 25.34164 110.06892 31923 ft 485 kts 314°
2026-04-28 06:08 25.39063 110.01753 31926 ft 485 kts 314°
2026-04-28 06:09 25.43942 109.96626 31928 ft 484 kts 314°
2026-04-28 06:09 25.48829 109.91482 31936 ft 486 kts 313°
2026-04-28 06:10 25.53760 109.86283 31935 ft 491 kts 313°
2026-04-28 06:10 25.58722 109.81050 31935 ft 492 kts 313°
2026-04-28 06:11 25.63649 109.75847 31943 ft 494 kts 313°
2026-04-28 06:11 25.68636 109.70575 31943 ft 496 kts 313°
2026-04-28 06:12 25.73625 109.65279 31944 ft 495 kts 311°
2026-04-28 06:12 25.77689 109.59234 31954 ft 486 kts 294°
2026-04-28 06:13 25.80049 109.52266 31956 ft 482 kts 284°
2026-04-28 06:13 25.81937 109.45137 31970 ft 481 kts 282°
2026-04-28 06:14 25.83768 109.37975 31964 ft 483 kts 282°
2026-04-28 06:14 25.85624 109.30813 31965 ft 481 kts 283°
2026-04-28 06:15 25.87488 109.23681 31969 ft 481 kts 283°
2026-04-28 06:15 25.89352 109.16552 31966 ft 481 kts 283°
2026-04-28 06:16 25.91218 109.09406 31981 ft 481 kts 283°
2026-04-28 06:16 25.93079 109.02271 31977 ft 481 kts 283°
2026-04-28 06:17 25.94970 108.95152 31980 ft 481 kts 283°
2026-04-28 06:18 25.97817 108.84461 31986 ft 481 kts 283°
2026-04-28 06:18 25.99693 108.77380 31995 ft 481 kts 283°
2026-04-28 06:19 26.01579 108.70257 31992 ft 481 kts 283°
2026-04-28 06:19 26.03480 108.63115 31989 ft 481 kts 283°
2026-04-28 06:20 26.05376 108.55973 31989 ft 481 kts 283°
2026-04-28 06:20 26.07267 108.48837 31990 ft 481 kts 283°
2026-04-28 06:21 26.09168 108.41693 31999 ft 482 kts 284°
2026-04-28 06:21 26.11796 108.34801 31993 ft 485 kts 291°
2026-04-28 06:22 26.14710 108.28012 31999 ft 486 kts 292°
2026-04-28 06:22 26.17658 108.21251 32001 ft 485 kts 292°
2026-04-28 06:23 26.20594 108.14481 32016 ft 485 kts 292°
2026-04-28 06:23 26.23500 108.07747 32012 ft 485 kts 291°
2026-04-28 06:24 26.26420 108.00965 32011 ft 486 kts 291°
2026-04-28 06:24 26.29338 107.94173 32009 ft 486 kts 291°
2026-04-28 06:25 26.32247 107.87386 32017 ft 486 kts 291°
2026-04-28 06:25 26.35161 107.80588 32016 ft 485 kts 291°
2026-04-28 06:26 26.38063 107.73804 32045 ft 484 kts 291°
2026-04-28 06:26 26.40954 107.67031 32028 ft 483 kts 291°
2026-04-28 06:27 26.43836 107.60269 32036 ft 483 kts 291°
2026-04-28 06:27 26.46720 107.53492 32036 ft 483 kts 291°
2026-04-28 06:28 26.49584 107.46761 32036 ft 482 kts 291°
2026-04-28 06:28 26.52445 107.39994 32064 ft 482 kts 291°
2026-04-28 06:29 26.55307 107.33218 32060 ft 482 kts 291°
2026-04-28 06:29 26.58168 107.26452 32079 ft 482 kts 290°
2026-04-28 06:30 26.61033 107.19676 32083 ft 482 kts 290°
2026-04-28 06:30 26.63890 107.12908 32094 ft 482 kts 291°
2026-04-28 06:31 26.66773 107.06123 32099 ft 482 kts 291°
2026-04-28 06:31 26.69650 106.99358 32108 ft 481 kts 291°
2026-04-28 06:32 26.72520 106.92593 32105 ft 481 kts 290°
2026-04-28 06:32 26.75842 106.86072 32120 ft 489 kts 302°
2026-04-28 06:33 26.80855 106.80839 32115 ft 502 kts 322°
2026-04-28 06:33 26.83959 106.79009 32115 ft 510 kts 333°
2026-04-28 06:33 26.87369 106.77830 32115 ft 516 kts 345°
2026-04-28 06:34 26.94572 106.77054 32115 ft 522 kts 354°
2026-04-28 06:34 27.01833 106.76732 32121 ft 523 kts 354°
2026-04-28 06:35 27.09052 106.76430 32117 ft 522 kts 354°
2026-04-28 06:35 27.16302 106.76078 32113 ft 520 kts 354°
2026-04-28 06:36 27.23538 106.75701 32114 ft 521 kts 354°
2026-04-28 06:36 27.30770 106.75322 32116 ft 520 kts 354°
2026-04-28 06:37 27.38009 106.74945 32114 ft 521 kts 354°
2026-04-28 06:37 27.45258 106.74859 32107 ft 522 kts 357°
2026-04-28 06:38 27.52528 106.74950 32108 ft 522 kts 357°
2026-04-28 06:38 27.59791 106.75010 32112 ft 522 kts 356°
2026-04-28 06:39 27.67046 106.75028 32106 ft 521 kts 356°
2026-04-28 06:39 27.74281 106.75031 32109 ft 520 kts 356°
2026-04-28 06:40 27.81516 106.75031 32111 ft 520 kts 356°
2026-04-28 06:40 27.88746 106.75034 32109 ft 520 kts 356°
2026-04-28 06:41 27.95930 106.75040 32101 ft 518 kts 356°
2026-04-28 06:41 28.03131 106.75046 32110 ft 517 kts 356°
2026-04-28 06:42 28.10320 106.75050 32116 ft 517 kts 356°
2026-04-28 06:42 28.17509 106.75055 32121 ft 517 kts 356°
2026-04-28 06:43 28.24710 106.75074 32113 ft 516 kts 356°
2026-04-28 06:43 28.31877 106.74979 32115 ft 512 kts 351°
2026-04-28 06:44 28.38934 106.74037 32118 ft 511 kts 348°
2026-04-28 06:44 28.45993 106.73011 32112 ft 511 kts 348°
2026-04-28 06:45 28.53036 106.71975 32117 ft 510 kts 348°
2026-04-28 06:45 28.60081 106.70934 32123 ft 510 kts 348°
2026-04-28 06:46 28.67077 106.69897 32135 ft 510 kts 348°
2026-04-28 06:46 28.70603 106.69393 31957 ft 516 kts 350°
2026-04-28 06:46 28.74279 106.69206 31763 ft 525 kts 356°
2026-04-28 06:46 28.77850 106.69194 31429 ft 515 kts 356°
2026-04-28 06:47 28.81444 106.69195 30446 ft 519 kts 357°
2026-04-28 06:47 28.85072 106.69194 29337 ft 524 kts 357°
2026-04-28 06:47 28.88704 106.69194 28554 ft 520 kts 357°
2026-04-28 06:47 28.92310 106.69192 27807 ft 515 kts 357°
2026-04-28 06:48 28.95880 106.69189 27105 ft 510 kts 357°
2026-04-28 06:48 28.99419 106.69185 26405 ft 506 kts 357°
2026-04-28 06:48 29.02920 106.69182 25696 ft 501 kts 358°
2026-04-28 06:48 29.06377 106.69182 25013 ft 491 kts 358°
2026-04-28 06:49 29.09761 106.69179 24320 ft 479 kts 358°
2026-04-28 06:49 29.13054 106.69255 23643 ft 468 kts
2026-04-28 06:49 29.16224 106.69952 22902 ft 459 kts 14°
2026-04-28 06:49 29.19253 106.70968 22257 ft 449 kts 15°
2026-04-28 06:50 29.22231 106.72004 21610 ft 449 kts 15°
2026-04-28 06:50 29.25232 106.73046 20962 ft 448 kts 15°
2026-04-28 06:50 29.28205 106.74077 20318 ft 445 kts 16°
2026-04-28 06:50 29.31159 106.75101 19668 ft 442 kts 15°
2026-04-28 06:51 29.34089 106.76115 19012 ft 439 kts 14°
2026-04-28 06:51 29.36973 106.77095 18362 ft 438 kts 14°
2026-04-28 06:51 29.39895 106.78083 17640 ft 436 kts 15°
2026-04-28 06:51 29.42769 106.79077 17318 ft 424 kts 16°
2026-04-28 06:52 29.45533 106.80052 17187 ft 407 kts 15°
2026-04-28 06:52 29.48164 106.80972 17028 ft 381 kts 15°
2026-04-28 06:52 29.50612 106.81825 16902 ft 353 kts 15°
2026-04-28 06:52 29.52876 106.82614 16750 ft 328 kts 15°
2026-04-28 06:53 29.55010 106.83354 16549 ft 316 kts 15°
2026-04-28 06:53 29.57126 106.84086 16071 ft 319 kts 15°
2026-04-28 06:53 29.59247 106.84822 15701 ft 317 kts 15°
2026-04-28 06:53 29.61339 106.85552 15489 ft 310 kts 14°
2026-04-28 06:54 29.62698 106.86023 15281 ft 308 kts 14°
2026-04-28 06:54 29.64754 106.86690 14904 ft 306 kts 10°
2026-04-28 06:54 29.66843 106.86741 14515 ft 299 kts 345°
2026-04-28 06:54 29.68685 106.85781 14160 ft 289 kts 319°
2026-04-28 06:55 29.69954 106.84046 13798 ft 281 kts 294°
2026-04-28 06:55 29.70501 106.81919 13386 ft 276 kts 276°
2026-04-28 06:55 29.70805 106.79748 12976 ft 274 kts 275°
2026-04-28 06:55 29.70668 106.77584 12578 ft 271 kts 253°
2026-04-28 06:56 29.69783 106.75701 12182 ft 269 kts 229°
2026-04-28 06:56 29.68286 106.74430 11795 ft 271 kts 205°
2026-04-28 06:56 29.66442 106.74010 11363 ft 275 kts 180°
2026-04-28 06:56 29.64575 106.74493 10986 ft 277 kts 163°
2026-04-28 06:57 29.62707 106.74944 10560 ft 274 kts 181°
2026-04-28 06:57 29.60856 106.74613 10205 ft 269 kts 197°
2026-04-28 06:57 29.59060 106.74020 9818 ft 269 kts 199°
2026-04-28 06:57 29.57273 106.73392 9412 ft 268 kts 199°
2026-04-28 06:58 29.55491 106.72765 9042 ft 267 kts 199°
2026-04-28 06:58 29.53747 106.72156 8724 ft 264 kts 199°
2026-04-28 06:58 29.52018 106.71561 8519 ft 252 kts 198°
2026-04-28 06:58 29.50392 106.71003 8311 ft 236 kts 199°
2026-04-28 06:59 29.48868 106.70474 8081 ft 222 kts 199°
2026-04-28 06:59 29.47423 106.69971 7783 ft 213 kts 199°
2026-04-28 06:59 29.46013 106.69478 7366 ft 211 kts 199°
2026-04-28 06:59 29.44613 106.68991 6972 ft 208 kts 198°
2026-04-28 07:00 29.43239 106.68521 6609 ft 205 kts 198°
2026-04-28 07:00 29.41875 106.68053 6320 ft 204 kts 198°
2026-04-28 07:00 29.40519 106.67583 6050 ft 203 kts 198°
2026-04-28 07:00 29.39169 106.67116 5925 ft 203 kts 197°
2026-04-28 07:01 29.37850 106.66545 5913 ft 202 kts 210°
2026-04-28 07:01 29.36847 106.65531 5899 ft 185 kts 236°
2026-04-28 07:01 29.36361 106.64213 5656 ft 178 kts 262°
2026-04-28 07:01 29.36401 106.62803 5321 ft 178 kts 284°
2026-04-28 07:02 29.36734 106.61439 5042 ft 177 kts 290°
2026-04-28 07:02 29.37109 106.60088 4738 ft 178 kts 292°
2026-04-28 07:02 29.37472 106.58760 4479 ft 176 kts 293°
2026-04-28 07:02 29.37834 106.57421 4185 ft 176 kts 292°
2026-04-28 07:03 29.38181 106.56079 3969 ft 174 kts 292°
2026-04-28 07:03 29.38599 106.54807 3915 ft 170 kts 302°
2026-04-28 07:03 29.39374 106.53816 3898 ft 168 kts 328°
2026-04-28 07:03 29.40476 106.53592 3932 ft 157 kts
2026-04-28 07:04 29.41559 106.53769 3906 ft 158 kts 11°
2026-04-28 07:04 29.42628 106.54046 3924 ft 154 kts 15°
2026-04-28 07:04 29.43612 106.54365 3911 ft 141 kts 17°
2026-04-28 07:04 29.44531 106.54689 3913 ft 136 kts 16°
2026-04-28 07:05 29.45417 106.54998 3909 ft 131 kts 16°
2026-04-28 07:05 29.46268 106.55289 3905 ft 126 kts 16°
2026-04-28 07:05 29.47099 106.55570 3908 ft 125 kts 16°
2026-04-28 07:05 29.47918 106.55848 3904 ft 124 kts 16°
2026-04-28 07:06 29.48764 106.56134 3907 ft 125 kts 17°
2026-04-28 07:06 29.49592 106.56412 3906 ft 127 kts 18°
2026-04-28 07:06 29.50441 106.56706 3914 ft 127 kts 17°
2026-04-28 07:06 29.51275 106.56996 3910 ft 124 kts 16°
2026-04-28 07:07 29.52098 106.57283 3905 ft 123 kts 16°
2026-04-28 07:07 29.52923 106.57570 3915 ft 125 kts 16°
2026-04-28 07:07 29.53750 106.57857 3901 ft 124 kts 16°
2026-04-28 07:07 29.54589 106.58146 3900 ft 126 kts 16°
2026-04-28 07:08 29.55429 106.58437 3898 ft 126 kts 16°
2026-04-28 07:08 29.56265 106.58726 3899 ft 125 kts 16°
2026-04-28 07:08 29.57100 106.59015 3895 ft 125 kts 16°
2026-04-28 07:08 29.57930 106.59303 3891 ft 124 kts 16°
2026-04-28 07:09 29.58762 106.59591 3759 ft 124 kts 16°
2026-04-28 07:09 29.59587 106.59875 3580 ft 124 kts 17°
2026-04-28 07:09 29.60416 106.60165 3437 ft 124 kts 15°
2026-04-28 07:09 29.61233 106.60446 3264 ft 121 kts 15°
2026-04-28 07:10 29.62040 106.60726 3103 ft 121 kts 15°
2026-04-28 07:10 29.62845 106.61004 2943 ft 120 kts 15°
2026-04-28 07:10 29.63631 106.61276 2781 ft 120 kts 15°
2026-04-28 07:10 29.64441 106.61558 2630 ft 121 kts 14°
2026-04-28 07:11 29.65239 106.61835 2456 ft 119 kts 13°
2026-04-28 07:11 29.66039 106.62110 2314 ft 124 kts 12°
2026-04-28 07:11 29.66859 106.62394 2132 ft 122 kts 14°
2026-04-28 07:11 29.67668 106.62676 1976 ft 122 kts 13°
2026-04-28 07:12 29.68496 106.62961 1805 ft 126 kts 15°
2026-04-28 07:12 29.69329 106.63272 1584 ft 126 kts 17°
2026-04-28 07:12 29.70176 106.63561 1470 ft 130 kts 13°
2026-04-28 07:12 29.71032 106.63842 1364 ft 115 kts 18°
2026-04-28 07:13 29.71681 106.64071 1365 ft 83 kts 17°
2026-04-28 07:13 29.72145 106.64231 1366 ft 57 kts 16°
2026-04-28 07:13 29.72449 106.64336 1365 ft 36 kts 17°
2026-04-28 07:13 29.72611 106.64410 1365 ft 14 kts 28°
2026-04-28 07:14 29.72669 106.64453 1366 ft 9 kts 36°
2026-04-28 07:14 29.72711 106.64494 1365 ft 7 kts 44°
2026-04-28 07:14 29.72749 106.64538 1365 ft 9 kts 46°
2026-04-28 07:14 29.72789 106.64594 1365 ft 9 kts 50°
2026-04-28 07:15 29.72834 106.64648 1366 ft 9 kts 39°
2026-04-28 07:15 29.72885 106.64684 1365 ft 8 kts 25°
2026-04-28 07:15 29.72963 106.64721 1364 ft 12 kts 26°
2026-04-28 07:15 29.72996 106.64764 1365 ft 5 kts 78°
2026-04-28 07:16 29.72991 106.64861 1365 ft 12 kts 105°
2026-04-28 07:16 29.72966 106.64957 1366 ft 14 kts 107°
2026-04-28 07:16 29.72948 106.65026 1362 ft 0 kts 107°
2026-04-28 07:20 29.72947 106.65030 1362 ft 2 kts 107°
2026-04-28 07:20 29.72930 106.65094 1363 ft 12 kts 107°
2026-04-28 07:20 29.72914 106.65186 1363 ft 12 kts 97°
2026-04-28 07:21 29.72886 106.65255 1363 ft 5 kts 140°
2026-04-28 07:21 29.72828 106.65263 1361 ft 8 kts 176°
2026-04-28 07:21 29.72815 106.65282 1361 ft 3 kts 100°
2026-04-28 07:22 29.72822 106.65350 1360 ft 6 kts 76°
2026-04-28 07:22 29.72832 106.65390 1361 ft 0 kts 74°